Orbital Elements at Epoch 2459200.5 (2020-Dec-17.0) TDB
Reference: JPL 19 (heliocentric ecliptic J2000)
Element | Value | Uncertainty (1-sigma) | Units |
e | .186103488602893 | 5.1926e-08 | |
a | 2.773192062154403 | 2.1791e-08 | au |
q | 2.257091344821618 | 1.4747e-07 | au |
i | 5.918136816352998 | 4.5183e-06 | deg |
node | 116.7252497469517 | 5.1665e-05 | deg |
peri | 262.875999515831 | 5.299e-05 | deg |
M | 134.1040872903507 | 1.3595e-05 | deg |
tp | 2458572.140965905667 (2019-Mar-29.64096591) | 6.0198e-05 | TDB |
period | 1686.818476935688 4.62 | 1.9882e-05 5.443e-08 | d yr |
n | .2134195261211414 | 2.5155e-09 | deg/d |
Q | 3.289292779487188 | 2.5846e-08 | au |
|
| | Orbit Determination Parameters
Additional Information
|